Regional Weather Roundup
Issued by NWS Newport/Morehead, NC

Current Version | Previous Version | Graphics & Text | Print | Product List | Glossary Off
Versions: 1 2 3 4 5 6 7 8 9 10 11 12 13 14 15 16 17 18 19 20 21 22 23 24 25 26 27 28 29 30 31 32 33 34 35 36 37 38 39 40 41 42 43 44 45 46 47 48 49 50

925
ASUS42 KMHX 081714
RWRMHX
WEATHER ROUNDUP FOR EASTERN NORTH CAROLINA
NATIONAL WEATHER SERVICE NEWPORT/MOREHEAD CITY NC
1200 PM EST MON FEB 08 2016

NOTE: "FAIR" INDICATES FEW OR NO CLOUDS BELOW 12,000 FEET
WITH NO SIGNIFICANT WEATHER AND/OR OBSTRUCTIONS TO VISIBILITY

NCZ015>017-031-032-045>047-102-103-081800-
NORTH COAST

CITY           SKY/WX    TMP DP  RH WIND       PRES   REMARKS
EDENTON        SUNNY     47  32  56 W5        29.78F
ELIZABETH CITY SUNNY     47  33  58 N7        29.77F
KITTY HAWK     SUNNY     48  33  55 NW5       29.76F
MANTEO         SUNNY     45  34  65 NW9       29.78F

$$

NCZ045>047-081-094-103-104-081800-
CENTRAL COAST

CITY           SKY/WX    TMP DP  RH WIND       PRES   REMARKS
FRISCO         SUNNY     47  33  58 NW8       29.79F
SWANQUARTER      N/A     48 N/A N/A W7        29.77S

$$

NCZ095-097-098-100-101-081800-
SOUTHERN COAST

CITY           SKY/WX    TMP DP  RH WIND       PRES   REMARKS
BEAUFORT       SUNNY     49  32  52 SW8       29.81F
CEDAR ISLAND     N/A     46 N/A N/A W7G13     29.85S
JACKSONVILLE   SUNNY     51  27  39 CALM      29.81F
PINEY ISLAND   SUNNY    N/A N/A N/A W8        29.80F
WILMINGTON     SUNNY     53  30  41 MISG      29.82F


$$

NCZ011>013-027>030-043-044-078>080-089-090>093-098-081800-
COASTAL PLAIN

CITY           SKY/WX    TMP DP  RH WIND       PRES   REMARKS
AHOSKIE        SUNNY     46  26  46 CALM      29.76F
CLINTON        SUNNY     52  33  47 S6        29.79F
ELIZABETHTOWN  SUNNY     52  30  42 S7        29.80F
GOLDSBORO      SUNNY     50  28  43 VRB2      29.77F
GREENVILLE     SUNNY     48  27  43 CALM      29.81F
HAVELOCK       SUNNY     51  25  36 W8        29.82F
KENANSVILLE      N/A     51  27  39 CALM      29.81F
KINSTON        SUNNY    N/A N/A N/A SW7       29.80F
NEW BERN       SUNNY     51  28  41 W5        29.82F
RICHLANDS      SUNNY     52  28  40 SW7       29.81F
ROCKY MOUNT    SUNNY     49  24  37 CALM      29.78F
WASHINGTON     SUNNY     47  29  48 CALM      29.79F
WHITEVILLE     SUNNY     53  29  40 S8        29.80F

$$

AMZ130-135-150-152-154-156-158-170-250-252-270-ANZ085-086-088-633-658-670-081800-
MARINE OBSERVATIONS

STATION/POSITION TIME  TEMP    WIND        PRES    WAVE   SWELL
                       AIR SEA DIR/SP/G            HT/PER HT/PER
                 (UTC) (F)     (DEG/KT/KT) (MB)    (FT/S) (FT/S)
CHESAPEAKE LIGHT 1700   41     340/ 11/ 13 1008.5
64 E VA BEACH    1650   44 53  330/ 19/ 25 1006.2   16/13  13/13
DUCK             1600   42     340/ 12/ 17 1008.0
2 E DUCK         1611      44                N/A    10/13   8/13
OREGON INLET     1600   42 45  300/ 12/ 15 1008.7
13E OREGON INLT  1700      47                N/A    17/15  15/15
HATTERAS CG      1600   42 50  300/ 14/ 18 1008.9
DIAMOND BUOY     1650   43 53  310/ 14/ 17 1009.1   19/16  18/16
CAPE LOOKOUT     NOT AVBL
BEAUFORT LAB     1600   46 46  290/  5/  8 1009.3
30 SE NEW RVR IN 1608   49 60              1010.5
30 SE NEW RVR IN 1655      60                N/A     6/13   5/13
27 SE WRIGHTSVLE 1608   51 59  360/  6/ 10 1009.8
5 SE WRIGHTSVLE  1608   47 52  210/  2/  4 1011.3
225 S CAPE HAT   1650   59 69  290/ 21/ 25   N/A    17/10  15/10
41 SE CHARLESTON 1650   56 65  250/ 16/ 19 1011.3    6/15   5/15

$$




USA.gov is the U.S. government's official web portal to all federal, state and local government web resources and services.